Glasgow, KY

11:11 AM CDT on July 22, 2017 (GMT -0500)
Glasgow Municipal

Weather History for KGLW - December, 2012

Change the Weather History Date:

Sunday, December 30, 2012

  Actual Average Record
Temperature  
Mean Temperature 30 °F -  
Max Temperature 37 °F 44 °F 68 °F (1990)
Min Temperature 22 °F 27 °F -2 °F (1983)
Degree Days  
Heating Degree Days 36    
Moisture  
Dew Point 22 °F    
Average Humidity 71    
Maximum Humidity 96    
Minimum Humidity 53    
Precipitation  
Precipitation 0.00 in - - ()
Sea Level Pressure  
Sea Level Pressure 30.43 in    
Wind  
Wind Speed 4 mph (SW)    
Max Wind Speed 9 mph    
Max Gust Speed -    
Visibility 10 miles    
Events      
Averages and records for this station are not official NWS values.
T = Trace of Precipitation, MM = Missing Value Source: NWS Daily Summary

Daily Weather History Graph

Daily Weather History Graph

Search for Another Location

Airport or City:

Trip Planner

Search our weather history database for the weather conditions in past years. The results will help you decide how hot, cold, wet, or windy it might be!

Date:

Astronomy

Dec. 30, 2012 Rise Set
Actual Time 6:56 AM CST 4:36 PM CST
Civil Twilight 6:27 AM CST 5:05 PM CST
Nautical Twilight 5:55 AM CST 5:37 PM CST
Astronomical Twilight 5:23 AM CST 6:09 PM CST
Moon 7:03 PM CST (12/30) 8:08 AM CST (12/30)
Length of Visible Light 10h 37m
Length of Day
9h 39m
Waning Gibbous, 95% of the Moon is Illuminated
Dec 30
Waning Gibbous
Jan 4
Last Quarter
Jan 11
New
Jan 18
First Quarter
Jan 26
Full

Hourly Weather History & Observations

Time (CST) Temp. Windchill Dew Point Humidity Pressure Visibility Wind Dir Wind Speed Gust Speed Precip Events Conditions
12:15 AM 27.3 °F 18.4 °F 18.7 °F 70% 30.34 in 10.0 mi WNW 9.2 mph - N/A   Overcast
12:35 AM 27.3 °F 19.1 °F 18.7 °F 70% 30.34 in 10.0 mi NW 8.1 mph - N/A   Overcast
12:55 AM 27.3 °F 19.9 °F 18.5 °F 69% 30.34 in 10.0 mi NW 6.9 mph - N/A   Overcast
1:15 AM 27.3 °F 19.9 °F 18.9 °F 70% 30.36 in 10.0 mi NW 6.9 mph - N/A   Overcast
7:35 AM 22.6 °F - 18.9 °F 85% 30.46 in 7.0 mi Calm Calm - N/A   Clear
7:55 AM 23.5 °F - 19.8 °F 85% 30.46 in 10.0 mi Calm Calm - N/A   Clear
8:15 AM 25.0 °F - 19.8 °F 81% 30.47 in 10.0 mi Calm Calm - N/A   Clear
8:35 AM 26.4 °F 22.4 °F 19.9 °F 77% 30.48 in 10.0 mi SW 3.5 mph - N/A   Clear
8:55 AM 27.5 °F 21.1 °F 20.5 °F 75% 30.50 in 10.0 mi SW 5.8 mph - N/A   Clear
9:15 AM 28.2 °F 22.0 °F 21.2 °F 75% 30.51 in 10.0 mi SW 5.8 mph - N/A   Clear
9:35 AM 29.5 °F 23.4 °F 21.4 °F 72% 30.51 in 10.0 mi SSW 5.8 mph - N/A   Clear
9:55 AM 30.2 °F 25.4 °F 21.2 °F 69% 30.52 in 10.0 mi SSW 4.6 mph - N/A   Clear
10:15 AM 31.1 °F 24.5 °F 21.6 °F 68% 30.52 in 10.0 mi West 6.9 mph - N/A   Clear
10:35 AM 31.8 °F 26.2 °F 21.4 °F 65% 30.52 in 10.0 mi SW 5.8 mph - N/A   Clear
10:55 AM 32.2 °F 27.7 °F 22.1 °F 66% 30.51 in 10.0 mi SSW 4.6 mph - N/A   Clear
11:15 AM 32.4 °F 27.9 °F 21.4 °F 64% 30.49 in 10.0 mi SW 4.6 mph - N/A   Clear
11:35 AM 32.9 °F 28.5 °F 21.2 °F 62% 30.49 in 10.0 mi WSW 4.6 mph - N/A   Clear
11:55 AM 33.3 °F - 20.5 °F 59% 30.47 in 10.0 mi Calm Calm - N/A   Clear
12:15 PM 34.0 °F - 20.8 °F 59% 30.46 in 10.0 mi Calm Calm - N/A   Clear
12:35 PM 35.1 °F - 21.2 °F 57% 30.44 in 10.0 mi Calm Calm - N/A   Clear
12:55 PM 35.6 °F - 20.7 °F 55% 30.42 in 10.0 mi Calm Calm - N/A   Clear
1:15 PM 36.0 °F - 20.3 °F 53% 30.42 in 10.0 mi Calm Calm - N/A   Clear
1:35 PM 36.1 °F - 20.8 °F 54% 30.42 in 10.0 mi Calm Calm - N/A   Clear
1:55 PM 36.9 °F 33.1 °F 21.6 °F 54% 30.42 in 10.0 mi West 4.6 mph - N/A   Clear
2:15 PM 37.2 °F 33.6 °F 21.6 °F 53% 30.42 in 10.0 mi South 4.6 mph - N/A   Clear
2:35 PM 37.4 °F 33.8 °F 21.7 °F 53% 30.42 in 10.0 mi South 4.6 mph - N/A   Clear
2:55 PM 37.4 °F 32.1 °F 21.9 °F 54% 30.44 in 10.0 mi South 6.9 mph - N/A   Clear
3:15 PM 37.2 °F 34.7 °F 21.9 °F 54% 30.44 in 10.0 mi SW 3.5 mph - N/A   Clear
3:35 PM 37.0 °F 34.5 °F 22.1 °F 55% 30.43 in 10.0 mi SW 3.5 mph - N/A   Clear
3:55 PM 36.1 °F 33.5 °F 22.3 °F 57% 30.43 in 10.0 mi WSW 3.5 mph - N/A   Clear
4:15 PM 35.1 °F - 22.5 °F 60% 30.43 in 10.0 mi Calm Calm - N/A   Clear
4:35 PM 34.0 °F - 22.5 °F 63% 30.41 in 10.0 mi Calm Calm - N/A   Clear
4:55 PM 32.9 °F - 22.5 °F 65% 30.42 in 10.0 mi Calm Calm - N/A   Clear
5:15 PM 32.2 °F - 22.5 °F 67% 30.42 in 10.0 mi Calm Calm - N/A   Clear
5:35 PM 32.0 °F - 22.5 °F 68% 30.42 in 10.0 mi Calm Calm - N/A   Clear
5:55 PM 31.5 °F - 22.3 °F 69% 30.42 in 10.0 mi Calm Calm - N/A   Clear
6:15 PM 30.4 °F - 22.6 °F 73% 30.41 in 10.0 mi Calm Calm - N/A   Clear
6:35 PM 29.8 °F - 23.0 °F 76% 30.41 in 10.0 mi Calm Calm - N/A   Clear
6:55 PM 29.7 °F - 22.6 °F 75% 30.41 in 10.0 mi Calm Calm - N/A   Clear
7:15 PM 28.8 °F - 23.4 °F 80% 30.41 in 10.0 mi Calm Calm - N/A   Clear
7:35 PM 28.2 °F - 23.4 °F 82% 30.40 in 10.0 mi Calm Calm - N/A   Clear
7:55 PM 28.6 °F - 23.7 °F 82% 30.40 in 10.0 mi Calm Calm - N/A   Clear
8:15 PM 28.2 °F - 23.4 °F 82% 30.39 in 10.0 mi Calm Calm - N/A   Clear
8:35 PM 27.5 °F - 23.2 °F 84% 30.40 in 10.0 mi Calm Calm - N/A   Clear
8:55 PM 27.9 °F - 23.5 °F 84% 30.40 in 10.0 mi Calm Calm - N/A   Clear
9:15 PM 28.0 °F - 23.7 °F 84% 30.40 in 10.0 mi Calm Calm - N/A   Clear
9:35 PM 27.5 °F - 23.2 °F 84% 30.39 in 10.0 mi Calm Calm - N/A   Clear
9:55 PM 26.8 °F - 22.5 °F 84% 30.38 in 10.0 mi Calm Calm - N/A   Clear
10:15 PM 26.6 °F - 23.0 °F 86% 30.38 in 10.0 mi Calm Calm - N/A   Clear
10:35 PM 26.8 °F - 23.4 °F 87% 30.37 in 10.0 mi Calm Calm - N/A   Clear
10:55 PM 26.4 °F - 22.6 °F 86% 30.38 in 10.0 mi Calm Calm - N/A   Clear
11:15 PM 25.9 °F - 21.9 °F 85% 30.37 in 10.0 mi Calm Calm - N/A   Clear
11:35 PM 25.0 °F - 21.9 °F 88% 30.36 in 10.0 mi Calm Calm - N/A   Clear
11:55 PM 24.4 °F - 23.4 °F 96% 30.35 in 10.0 mi Calm Calm - N/A   Clear